Powrót do katalogu

STARLINK-6143

AktywnyŁącznośćVLEO
NORAD 57133·PAYLOAD·🇺🇸 United States

Wystrzelony Jun 23, 2023 z Cape Canaveral Space Force Station

Loading…

Następne Przeloty (najbliższe 24 godziny)

TLE

ŚwieżeSource: CelesTrak SupGP

Epoka: Sep 15, 2026, 03:16 UTC

1 57133C 23090AJ  26258.13659722 -.00016766  00000+0 -60732-3 0  2587
2 57133  43.0020 273.3773 0001906 271.2606 234.0200 15.27582699    18

Śledź STARLINK-6143 w czasie rzeczywistym z AllMySat

Download on the App Store